Location: Beadle
(51.4667°N, 109.0000°W)
Time: 05:50:10
(UTC+00:00)

Altair - Pass Details

Date: 05 June 2022
Orbit: 1501 x 1682 km, 47.2° (Epoch: 30 June)

Event Time Altitude Azimuth Distance (km) Brightness Sun altitude
Rises 05:13:48 0° 284° (WNW) 4,931 10.8 -11.4°
Reaches altitude 10° 05:20:11 10° 255° (WSW) 3,945 9.8 -11.8°
Maximum altitude 05:22:58 11° 238° (WSW) 3,824 9.5 -12.0°
Drops below altitude 10° 05:25:46 10° 222° (SW) 3,934 9.4 -12.2°
Enters shadow 05:31:05 - 196° (SSW) 4,684 9.6 -12.6°
Sets 05:32:09 0° 192° (SSW) 4,895 - -12.6°
